Regional Weather Roundup
Issued by NWS Boston, MA

Home | Current Version | Previous Version | Text Only | Print | Product List | Glossary On
Versions: 1 2 3 4 5 6 7 8 9 10 11 12 13 14 15 16 17 18 19 20 21 22 23 24 25 26 27 28 29 30 31 32 33 34 35 36 37 38 39 40 41 42 43 44 45 46 47 48 49 50
000
ASUS41 KBOX 261910
RWRBOX

REGIONAL WEATHER ROUNDUP
NATIONAL WEATHER SERVICE TAUNTON MA
300 PM EDT WED APR 26 2017

NOTE:  "FAIR" INDICATES FEW OR NO CLOUDS BELOW 12,000 FEET WITH NO
SIGNIFICANT WEATHER AND/OR OBSTRUCTIONS TO VISIBILITY.

MAZALL-262000-
EASTERN MASSACHUSETTS

CITY           SKY/WX    TMP DP  RH WIND       PRES   REMARKS
BOSTON         LGT RAIN  53  53 100 NE7       29.84F VSB 1/4
BEVERLY        LGT RAIN  56  56 100 E6        29.85S VSB 1
LAWRENCE       LGT RAIN  59  57  93 NE7       29.87S FOG
BEDFORD        LGT RAIN  59  55  87 N7        29.83F
BLUE HILL        N/A     60  58  92 SE6       29.82F
NORWOOD        CLOUDY    61  60  97 NE5       29.82F FOG
MARSHFIELD     FOG       55  55 100 SE8       29.83S VSB 1/4
PLYMOUTH       CLOUDY    60  59  96 VRB7G18   29.82F
TAUNTON        CLOUDY    60  59  96 VRB6      29.81F FOG
NEW BEDFORD    CLOUDY    57  57 100 SE7       29.80F FOG
$$

MAZALL-262000-
CAPE COD AND THE ISLANDS

CITY           SKY/WX    TMP DP  RH WIND       PRES   REMARKS
FALMOUTH       CLOUDY    57  57 100 MISG      29.81F FOG
HYANNIS        FOG       55  55 100 SE10G21   29.79F VSB 1/2
CHATHAM        FOG       54  54 100 SE13G22   29.83F VSB 1/4
PROVINCETOWN   CLOUDY    56  55  97 SE15G25   29.83F FOG
NANTUCKET      FOG       54  52  93 SE24G31   29.78F VSB 1/4
MARTHAS VNYRD  FOG       57  55  93 SE21G31   29.79F VSB 1/2
$$

MAZALL-262000-
CENTRAL AND WESTERN MASSACHUSETTS

CITY           SKY/WX    TMP DP  RH WIND       PRES   REMARKS
WORCESTER      FOG       53  51  93 NE9       29.84S VSB 1/4
FITCHBURG      CLOUDY    57  55  93 NE5       29.86S FOG
ORANGE         CLOUDY    58  55  90 NE7       29.85S
SPRINGFIELD    CLOUDY    60  54  81 N7        29.81S
WESTFIELD      CLOUDY    58  55  90 NE10      29.83R
NORTH ADAMS    CLOUDY    62  54  74 E13       29.82S
PITTSFIELD     CLOUDY    62  53  72 NE8G16    29.80F
$$

RIZALL-262000-
RHODE ISLAND

CITY           SKY/WX    TMP DP  RH WIND       PRES   REMARKS
PROVIDENCE     LGT RAIN  59  59 100 NE6       29.81F FOG
NEWPORT        FOG       55  55 100 SE8       29.79F VSB 1/4
BLOCK ISLAND   LGT RAIN  54  54 100 CALM      29.79  VSB 1/4
SMITHFIELD     CLOUDY    58  57  97 NE9       29.82F
WESTERLY       LGT RAIN  59  58  96 E7        29.79F VSB 1
$$

CTZALL-262000-
CONNECTICUT

CITY           SKY/WX    TMP DP  RH WIND       PRES   REMARKS
BRADLEY INTL   CLOUDY    59  54  83 N10       29.82S
HARTFORD       CLOUDY    60  55  83 N10       29.80S
BRIDGEPORT     CLOUDY    64  56  75 NE10      29.77F
DANBURY        CLOUDY    60  56  86 NE7       29.79F
GROTON         LGT RAIN  58  57  97 NE6       29.77F FOG
NEW HAVEN      CLOUDY    63  56  78 N16       29.77F
CHESTER        CLOUDY    61  57  88 NE8       29.78F
MERIDEN        CLOUDY    61  55  81 N8        29.80S
WILLIMANTIC    CLOUDY    61  57  87 N8        29.81S
OXFORD         CLOUDY    57  52  82 E8        29.81R
$$

MEZ002-015-021-024-NHZ003-005-008-011-012-014-VTZ005-008-262000-
NORTHERN NEW ENGLAND

CITY           SKY/WX    TMP DP  RH WIND       PRES   REMARKS
PORTLAND ME    LGT RAIN  53  52  96 VRB5      29.93S FOG
BANGOR ME      DRIZZLE   56  55  97 SE5       29.99F FOG
CONCORD NH     CLOUDY    55  53  93 NE7       29.88S FOG
MANCHESTER NH  CLOUDY    55  52  89 N7        29.86S FOG
NASHUA NH      CLOUDY    55  54  96 VRB3      29.87F FOG
PORTSMOUTH NH  DRZL/FOG  54  54  99 E8        29.87F VSB 3/4
JAFFREY NH     CLOUDY    54  54 100 VRB5      29.86F
KEENE NH       LGT RAIN  55  53  93 N6        29.86S
BURLINGTON VT  CLOUDY    69  54  58 VRB6      29.82F
MT. WASHINGTON FOG       45  45 100 S41G51      N/A  VSB 1/16
$$

NYZ052-076-262000-
EASTERN NEW YORK

CITY           SKY/WX    TMP DP  RH WIND       PRES   REMARKS
ALBANY         PTSUNNY   66  56  70 N3        29.80F
NEW YORK CITY  CLOUDY    59  55  87 NE10      29.77S
$$

ANZALL-262000-
MARINE OBSERVATIONS

STATION/POSITION TIME  TEMP    WIND        PRES    VSBY  WAVE
                       AIR SEA DIR/SP/G                  HT/PER
                 (UTC) (F)     (DEG/KT/KT) (MB)    (MI)  (FT/S)
BOSTON BUOY      1750   49 46   90/  8/ 10 1009.8          5/ 7
BUZZARDS BAY     1900   53     130/  9/  9 1008.7F
NANTUCKET SOUND  1850      47              1008.5F         3/ 4
MASS BAY-STELLWA 1804   49 45  120/ 10/ 12 1010.3F         4/ 6
ISLE OF SHOALS   1900   50      40/  5/  6 1011.7F
S OF BLOCK IS    1855      47                N/A          10/11
$$

......................KEY.........................
  SKY/WX - SKY CONDITION/PRESENT WEATHER
  TMP    - TEMPERATURE IN FAHRENHEIT
  DWPT   - DEWPOINT IN FAHRENHEIT
  RH     - RELATIVE HUMIDITY IN PERCENT
  WIND   - DIRECTION AND SPEED IN MPH
  PRES   - MEAN SEA LEVEL PRESSURE IN INCHES OF HG
  WCI    - WIND CHILL INDEX
  VSB    - VISIBILITY IN MILES
  HX     - HEAT INDEX
  TC     - TEMPERATURE IN CELSIUS
  VRB    - VARIABLE WIND DIRECTION
  N/A    - NOT AVAILABLE



USA.gov is the U.S. government's official web portal to all federal, state and local government web resources and services.